TimeEDT,TemperatureF,Dew PointF,Humidity,Sea Level PressureIn,VisibilityMPH,Wind Direction,Wind SpeedMPH,Gust SpeedMPH,PrecipitationIn,Events,Conditions,WindDirDegrees,DateUTC
12:53 AM,33.1,10.0,38,29.99,10.0,West,6.9,-,N/A,,Clear,280,2013-04-03 04:53:00
1:53 AM,30.9,12.0,46,30.00,10.0,WNW,3.5,-,N/A,,Mostly Cloudy,290,2013-04-03 05:53:00
2:53 AM,30.9,10.9,43,29.99,10.0,West,5.8,-,N/A,,Partly Cloudy,280,2013-04-03 06:53:00
3:53 AM,30.9,12.0,46,29.99,10.0,West,9.2,-,N/A,,Clear,280,2013-04-03 07:53:00
4:53 AM,30.9,12.0,46,30.00,10.0,West,10.4,16.1,N/A,,Scattered Clouds,280,2013-04-03 08:53:00
5:53 AM,30.0,12.9,49,30.01,10.0,Variable,4.6,-,N/A,,Clear,0,2013-04-03 09:53:00
6:53 AM,30.0,12.9,49,30.03,10.0,West,10.4,-,N/A,,Clear,280,2013-04-03 10:53:00
7:53 AM,32.0,14.0,48,30.05,10.0,West,12.7,21.9,N/A,,Clear,280,2013-04-03 11:53:00
8:53 AM,33.1,12.9,43,30.05,10.0,West,12.7,21.9,N/A,,Clear,280,2013-04-03 12:53:00
9:53 AM,36.0,12.9,39,30.03,10.0,WNW,17.3,27.6,N/A,,Clear,290,2013-04-03 13:53:00
10:53 AM,37.9,12.0,35,30.03,10.0,WNW,15.0,23.0,N/A,,Clear,290,2013-04-03 14:53:00
11:53 AM,39.9,12.9,33,30.01,10.0,West,12.7,23.0,N/A,,Clear,270,2013-04-03 15:53:00
12:53 PM,41.0,12.0,31,30.01,10.0,West,13.8,27.6,N/A,,Clear,280,2013-04-03 16:53:00
1:53 PM,43.0,12.9,30,30.00,10.0,West,11.5,25.3,N/A,,Clear,280,2013-04-03 17:53:00
2:53 PM,43.0,12.0,28,29.99,10.0,West,11.5,25.3,0.00,,Clear,270,2013-04-03 18:53:00
3:53 PM,44.1,12.0,27,29.98,10.0,West,12.7,21.9,N/A,,Clear,270,2013-04-03 19:53:00
4:53 PM,44.1,10.9,26,29.98,10.0,West,13.8,21.9,N/A,,Clear,280,2013-04-03 20:53:00
5:53 PM,43.0,10.9,27,30.00,10.0,WNW,16.1,25.3,N/A,,Clear,300,2013-04-03 21:53:00
6:53 PM,41.0,9.0,27,30.04,10.0,WNW,18.4,29.9,N/A,,Clear,300,2013-04-03 22:53:00
7:53 PM,39.0,10.0,30,30.07,10.0,NW,19.6,27.6,N/A,,Clear,310,2013-04-03 23:53:00
8:53 PM,37.0,12.0,36,30.12,10.0,WNW,11.5,21.9,N/A,,Clear,300,2013-04-04 00:53:00
9:53 PM,36.0,10.9,36,30.15,10.0,NW,13.8,29.9,N/A,,Clear,310,2013-04-04 01:53:00
10:53 PM,34.0,10.9,38,30.17,10.0,WNW,13.8,23.0,N/A,,Clear,290,2013-04-04 02:53:00
11:53 PM,33.1,12.9,43,30.19,10.0,NW,18.4,24.2,N/A,,Clear,310,2013-04-04 03:53:00